Skip Page Navigation
NASA JPL Caltech
NASA Logo - Jet Propulsion Laboratory + View the NASA Portal
+ Near-Earth Object (NEO) Program
Search JPL
JPL Home Earth Solar System Stars & Galaxies Technology
JPL Solar System Dynamics
BODIES ORBITS EPHEMERIDES TOOLS PHYSICAL DATA DISCOVERY FAQ SITE MAP
JPL Small-Body Database Browser
Search: [ help ]  
167875 Kromminga (2005 EV29)
Classification: Main-belt Asteroid          SPK-ID: 2167875
Ephemeris | Orbit Diagram | Orbital Elements | Physical Parameters | Discovery Circumstances ]

[ hide orbit diagram ]
Orbit Diagram
Note: Make sure you have Java enabled on your browser to see the applet. This applet is provided as a 3D orbit visualization tool. The applet was implemented using 2-body methods, and hence should not be used for determining accurate long-term trajectories (over several years or decades) or planetary encounter circumstances. For accurate long-term ephemerides, please instead use our Horizons system.
Orbit Viewer

Additional Notes: the orbits shown in the applet are color coded. The planets are white lines, and the asteroid/comet is a blue line. The bright white line indicates the portion of the orbit that is above the ecliptic plane, and the darker portion is below the ecliptic plane. Likewise for the asteroid/comet orbit, the light blue indicates the portion above the ecliptic plane, and the dark blue the portion below the ecliptic plane.

Orbit Viewer applet originally written and kindly provided by Osamu Ajiki (AstroArts), and further modified by Ron Baalke (JPL).


Orbital Elements at Epoch 2456400.5 (2013-Apr-18.0) TDB
Reference: MPO224116 (heliocentric ecliptic J2000)
 Element Value Uncertainty (1-sigma)   Units 
e 0.1291416 n/a  
a 2.3197119 n/a AU
q 2.0201406 n/a AU
i 5.00173 n/a deg
node 26.79916 n/a deg
peri 14.62794 n/a deg
M 203.79697 n/a deg
tp 2456960.4334990
(2014-Oct-29.93349900)
n/a JED
period 1290.4747086
3.53
n/a
n/a
d
yr
n 0.27896711 n/a deg/d
Q 2.6192832 n/a AU
  Orbit Determination Parameters
   # obs. used (total)      146  
   first obs. used      2000-??-??  
   last obs. used      2012-02-04  
   # oppositions      8  
   planetary ephem.      DE403  
   condition code      0  
   fit RMS      0.45  
   data source      MPC:mpu  
   producer      MPCLINUX  

Additional Information
 T_jup = 3.562 

Ephemeris | Orbit Diagram | Orbital Elements | Physical Parameters | Discovery Circumstances ]

Physical Parameter Table
Parameter Symbol Value Units Sigma Reference Notes
absolute magnitude H 16.6 mag n/a MPO224116  

167875 Kromminga           Discovered 2005 Mar. 2 by Calvin College at the Calvin-Rehoboth Observatory.
Albion Kromminga (b. 1933) was a physics professor at Calvin College from 1965 until retiring in 1996. A talented theorist, he is known by a generation of students for complete lectures, thought-provoking tests and a wry sense of humor. He is also a lifelong fisherman and environmentalist.
NOTE: some special characters may not display properly (any characters within {} are an attempt to place the proper accent above a character)
Reference: 20100130/MPCPages.arcLast Updated: 2013-03-29
Ephemeris | Orbit Diagram | Orbital Elements | Physical Parameters | Discovery Circumstances ]
ABOUT SSD CREDITS/AWARDS PRIVACY/COPYRIGHT GLOSSARY LINKS
FirstGov 2013-May-24 19:18 UT
(server date/time)  
NASA Home Page
Site Manager:   Donald K. Yeomans
Webmaster  Alan B. Chamberlin